Powrót do katalogu

SL-8 DEB

AktywnySSO
NORAD 27768·DEBRIS·🇷🇺 Russia

Wystrzelony Nov 28, 2002 z Plesetsk Cosmodrome

Loading…

Następne Przeloty (najbliższe 24 godziny)

TLE

ŚwieżeSource: Space-Track

Epoka: Sep 14, 2026, 14:56 UTC

1 27768U 02054D   26257.62222549  .00001721  00000-0  24900-3 0  9994
2 27768  98.2485 134.3940 0025563 267.3137  92.5147 14.77313395268526

Śledź SL-8 DEB w czasie rzeczywistym z AllMySat

Download on the App Store